EN

Hourly Weather Altona

Today, 18 January, Monday

Time Temperature Precipitation Wind Pressure Humidity
00:00 -10°C° 0 mm 2 mps 765 mmHg 88%
01:00 -9°C° 0 mm 1 mps 765 mmHg 89%
02:00 -9°C° 0 mm 1 mps 764 mmHg 90%
03:00 -9°C° 0 mm 1 mps 764 mmHg 90%
04:00 -9°C° 0 mm 1 mps 764 mmHg 90%
05:00 -8°C° 0 mm 1 mps 764 mmHg 91%
06:00 -8°C° 0 mm 1 mps 764 mmHg 92%
07:00 -8°C° 0 mm 1 mps 764 mmHg 90%
08:00 -8°C° 0 mm 1 mps 764 mmHg 89%
09:00 -8°C° 0 mm 2 mps 763 mmHg 88%
10:00 -7°C° 0 mm 2 mps 763 mmHg 87%
11:00 -6°C° 0 mm 2 mps 763 mmHg 87%
12:00 -5°C° 0 mm 2 mps 763 mmHg 86%
13:00 -4°C° 0 mm 2 mps 763 mmHg 85%
14:00 -4°C° 0.1 mm 2 mps 762 mmHg 89%
15:00 -4°C° 0.1 mm 2 mps 762 mmHg 92%
16:00 -4°C° 0.1 mm 2 mps 762 mmHg 95%
17:00 -3°C° 0.2 mm 2 mps 761 mmHg 96%
18:00 -2°C° 0.2 mm 2 mps 761 mmHg 97%
19:00 -2°C° 0.2 mm 2 mps 761 mmHg 97%
20:00 -1°C° 0.4 mm 3 mps 760 mmHg 97%
21:00 0°C° 0.4 mm 3 mps 760 mmHg 97%
22:00 0°C° 0.4 mm 4 mps 760 mmHg 98%
23:00 0°C° 0.3 mm 4 mps 759 mmHg 98%

Tomorrow, 19 January, Tuesday

Time Temperature Precipitation Wind Pressure Humidity
00:00 0°C° 0.3 mm 4 mps 759 mmHg 97%
01:00 0°C° 0.3 mm 4 mps 759 mmHg 97%
02:00 0°C° 0.2 mm 4 mps 758 mmHg 97%
03:00 0°C° 0.2 mm 4 mps 758 mmHg 97%
04:00 0°C° 0.2 mm 4 mps 758 mmHg 97%
05:00 0°C° 0 mm 4 mps 757 mmHg 97%
06:00 0°C° 0 mm 4 mps 757 mmHg 96%
07:00 0°C° 0 mm 4 mps 757 mmHg 96%
08:00 0°C° 0 mm 4 mps 757 mmHg 96%
09:00 0°C° 0 mm 4 mps 756 mmHg 96%
10:00 0°C° 0 mm 4 mps 756 mmHg 96%
11:00 0°C° 0.2 mm 4 mps 756 mmHg 97%
12:00 -1°C° 0.2 mm 4 mps 755 mmHg 97%
13:00 -1°C° 0.2 mm 5 mps 755 mmHg 97%
14:00 -1°C° 0.2 mm 5 mps 754 mmHg 97%
15:00 -1°C° 0.2 mm 5 mps 753 mmHg 97%
16:00 -1°C° 0.2 mm 5 mps 752 mmHg 97%
17:00 -1°C° 0.3 mm 4 mps 752 mmHg 97%
18:00 0°C° 0.3 mm 4 mps 751 mmHg 97%
19:00 0°C° 0.3 mm 4 mps 751 mmHg 97%
20:00 +1°C° 1.1 mm 4 mps 750 mmHg 97%
21:00 +2°C° 1.1 mm 5 mps 750 mmHg 97%
22:00 +2°C° 1.1 mm 5 mps 750 mmHg 97%
23:00 +3°C° 0.2 mm 5 mps 750 mmHg 95%

Day after tomorrow, 20 January, Wednesday

Time Temperature Precipitation Wind Pressure Humidity
00:00 +3°C° 0.2 mm 5 mps 750 mmHg 93%
01:00 +4°C° 0.2 mm 6 mps 750 mmHg 92%
02:00 +3°C° 0 mm 6 mps 750 mmHg 91%
03:00 +2°C° 0 mm 6 mps 750 mmHg 90%
04:00 +2°C° 0 mm 6 mps 750 mmHg 89%
05:00 +2°C° 0 mm 6 mps 750 mmHg 89%
06:00 +2°C° 0 mm 6 mps 750 mmHg 89%
07:00 +1°C° 0 mm 5 mps 750 mmHg 89%
08:00 +1°C° 0 mm 5 mps 750 mmHg 86%
09:00 +2°C° 0 mm 6 mps 750 mmHg 84%
10:00 +2°C° 0 mm 6 mps 750 mmHg 81%
11:00 +2°C° 0 mm 6 mps 750 mmHg 81%
12:00 +2°C° 0 mm 6 mps 750 mmHg 81%
13:00 +3°C° 0 mm 6 mps 750 mmHg 81%
14:00 +3°C° 0 mm 5 mps 749 mmHg 80%
15:00 +3°C° 0 mm 5 mps 749 mmHg 80%
16:00 +3°C° 0 mm 5 mps 749 mmHg 80%
17:00 +2°C° 0 mm 5 mps 749 mmHg 80%
18:00 +2°C° 0 mm 5 mps 749 mmHg 80%
19:00 +1°C° 0 mm 5 mps 750 mmHg 80%
20:00 +1°C° 0 mm 5 mps 749 mmHg 81%
21:00 +1°C° 0 mm 5 mps 749 mmHg 82%
22:00 +1°C° 0 mm 4 mps 749 mmHg 82%
23:00 +1°C° 0 mm 4 mps 749 mmHg 82%

21 January, Thursday

Time Temperature Precipitation Wind Pressure Humidity
00:00 +1°C° 0 mm 4 mps 749 mmHg 82%
01:00 +1°C° 0 mm 4 mps 749 mmHg 81%
02:00 +1°C° 0 mm 4 mps 749 mmHg 80%
03:00 +1°C° 0 mm 4 mps 749 mmHg 78%
04:00 +1°C° 0 mm 4 mps 748 mmHg 76%
05:00 +1°C° 0 mm 4 mps 748 mmHg 77%
06:00 +1°C° 0 mm 4 mps 748 mmHg 78%
07:00 +1°C° 0 mm 4 mps 748 mmHg 78%
08:00 +1°C° 0 mm 4 mps 748 mmHg 76%
09:00 +1°C° 0 mm 5 mps 748 mmHg 74%
10:00 +2°C° 0 mm 6 mps 748 mmHg 72%
11:00 +2°C° 0 mm 6 mps 748 mmHg 71%
12:00 +3°C° 0 mm 6 mps 748 mmHg 71%
13:00 +4°C° 0 mm 6 mps 747 mmHg 70%
14:00 +3°C° 0 mm 5 mps 747 mmHg 73%
15:00 +4°C° 0 mm 4 mps 746 mmHg 76%
16:00 +3°C° 0 mm 4 mps 746 mmHg 79%
17:00 +3°C° 0 mm 4 mps 746 mmHg 80%
18:00 +3°C° 0 mm 4 mps 746 mmHg 80%
19:00 +2°C° 0 mm 5 mps 746 mmHg 80%
20:00 +2°C° 0 mm 5 mps 746 mmHg 82%
21:00 +1°C° 0 mm 5 mps 746 mmHg 83%
22:00 +1°C° 0 mm 4 mps 745 mmHg 85%
23:00 +3°C° 0 mm 4 mps 745 mmHg 85%

22 January, Friday

Time Temperature Precipitation Wind Pressure Humidity
00:00 +3°C° 0 mm 4 mps 745 mmHg 86%
01:00 +3°C° 0 mm 4 mps 745 mmHg 87%
02:00 +3°C° 0 mm 4 mps 744 mmHg 87%
03:00 +3°C° 0 mm 5 mps 744 mmHg 86%
04:00 +3°C° 0 mm 5 mps 743 mmHg 86%
05:00 +3°C° 0 mm 5 mps 743 mmHg 82%
06:00 +2°C° 0 mm 5 mps 742 mmHg 78%
07:00 +2°C° 0 mm 5 mps 742 mmHg 74%
08:00 +2°C° 0 mm 5 mps 742 mmHg 74%
09:00 +3°C° 0 mm 5 mps 742 mmHg 74%
10:00 +5°C° 0 mm 5 mps 741 mmHg 75%
11:00 +4°C° 0 mm 6 mps 742 mmHg 74%
12:00 +5°C° 0 mm 6 mps 742 mmHg 74%
13:00 +7°C° 0 mm 6 mps 742 mmHg 73%
14:00 +6°C° 0 mm 5 mps 743 mmHg 75%
15:00 +5°C° 0 mm 4 mps 743 mmHg 78%
16:00 +3°C° 0 mm 3 mps 744 mmHg 81%
17:00 +3°C° 0 mm 3 mps 745 mmHg 79%
18:00 +3°C° 0 mm 3 mps 746 mmHg 78%
19:00 +3°C° 0 mm 3 mps 746 mmHg 76%
20:00 +3°C° 0 mm 3 mps 747 mmHg 78%
21:00 +3°C° 0 mm 3 mps 747 mmHg 80%
22:00 +3°C° 0 mm 3 mps 747 mmHg 81%
23:00 +2°C° 0 mm 3 mps 748 mmHg 83%

23 January, Saturday

Time Temperature Precipitation Wind Pressure Humidity
00:00 +2°C° 0 mm 3 mps 748 mmHg 86%
01:00 +1°C° 0 mm 3 mps 748 mmHg 88%
02:00 +1°C° 0 mm 3 mps 748 mmHg 89%
03:00 +1°C° 0 mm 3 mps 748 mmHg 89%
04:00 +1°C° 0 mm 3 mps 748 mmHg 90%
05:00 0°C° 0 mm 3 mps 748 mmHg 91%
06:00 0°C° 0 mm 3 mps 748 mmHg 92%
07:00 -1°C° 0 mm 3 mps 748 mmHg 93%
08:00 0°C° 0 mm 3 mps 748 mmHg 91%
09:00 +1°C° 0 mm 3 mps 748 mmHg 88%
10:00 0°C° 0 mm 4 mps 748 mmHg 86%
11:00 +2°C° 0 mm 3 mps 748 mmHg 86%
12:00 +2°C° 0 mm 3 mps 748 mmHg 86%
13:00 +2°C° 0 mm 3 mps 748 mmHg 86%
14:00 +2°C° 0 mm 3 mps 748 mmHg 85%
15:00 +3°C° 0 mm 2 mps 747 mmHg 85%
16:00 +3°C° 0 mm 2 mps 747 mmHg 85%
17:00 +2°C° 0 mm 2 mps 747 mmHg 86%
18:00 +2°C° 0 mm 2 mps 747 mmHg 88%
19:00 0°C° 0 mm 3 mps 747 mmHg 89%
20:00 0°C° 0 mm 3 mps 746 mmHg 90%
21:00 0°C° 0 mm 3 mps 746 mmHg 90%
22:00 0°C° 0 mm 3 mps 746 mmHg 91%
23:00 0°C° 0 mm 3 mps 745 mmHg 89%
Show more